Retour au catalogue

COSMOS 1188 DEB

LostHEO
NORAD 27895·DEBRIS·🇷🇺 Russia

Lancé Jun 14, 1980 depuis Plesetsk Cosmodrome

Loading…

Prochains Passages (prochaines 24 heures)

TLE

PériméSource: Space-Track

Époque: Jun 28, 2011, 23:27 UTC

1 27895U 80050J   11179.97712528 -.00000336  00000-0  10000-3 0  9991
2 27895  70.9508  45.2971 6168865 351.5663   1.7849  1.94887562109682

Suivez COSMOS 1188 DEB en temps réel avec AllMySat

Download on the App Store